Time,TemperatureF,DewpointF,PressureIn,WindDirection,WindDirectionDegrees,WindSpeedMPH,WindSpeedGustMPH,Humidity,HourlyPrecipIn,Conditions,Clouds,dailyrainin,SoftwareType,DateUTC
2013-01-30 00:04:00,58.0,56.0,29.43,SSE,158,3.0,10.0,92,0.00,,,0.09,,2013-01-30 05:04:00,
2013-01-30 00:12:00,58.0,56.0,29.43,SSE,158,3.0,10.0,92,0.00,,,0.09,,2013-01-30 05:12:00,
2013-01-30 00:22:00,58.0,56.0,29.42,SSE,158,3.0,10.0,92,0.00,,,0.09,,2013-01-30 05:22:00,
2013-01-30 00:32:00,58.0,56.0,29.41,South,184,4.0,13.0,92,0.00,,,0.09,,2013-01-30 05:32:00,
2013-01-30 00:43:00,58.0,56.0,29.41,South,184,4.0,13.0,92,0.00,,,0.09,,2013-01-30 05:43:00,
2013-01-30 00:52:00,59.0,56.0,29.39,SSW,206,4.0,11.0,91,0.00,,,0.09,,2013-01-30 05:52:00,
2013-01-30 01:02:00,59.0,56.0,29.38,SSE,154,6.0,14.0,90,0.00,,,0.09,,2013-01-30 06:02:00,
2013-01-30 01:12:00,59.0,56.0,29.38,SSE,154,6.0,14.0,90,0.00,,,0.09,,2013-01-30 06:12:00,
2013-01-30 01:22:00,60.0,57.0,29.36,SSE,152,5.0,16.0,90,0.01,,,0.10,,2013-01-30 06:22:00,
2013-01-30 01:32:00,60.0,57.0,29.35,South,178,4.0,14.0,90,0.01,,,0.10,,2013-01-30 06:32:00,
2013-01-30 01:42:00,60.0,57.0,29.35,South,178,4.0,14.0,90,0.01,,,0.10,,2013-01-30 06:42:00,
2013-01-30 01:52:00,60.0,57.0,29.34,SW,223,4.0,14.0,90,0.01,,,0.10,,2013-01-30 06:52:00,
2013-01-30 02:02:00,60.0,57.0,29.33,South,180,5.0,16.0,90,0.01,,,0.09,,2013-01-30 07:02:00,
2013-01-30 02:11:00,60.0,57.0,29.33,South,180,5.0,16.0,90,0.01,,,0.09,,2013-01-30 07:11:00,
2013-01-30 02:22:00,60.0,57.0,29.32,SSE,159,5.0,12.0,90,0.00,,,0.09,,2013-01-30 07:22:00,
2013-01-30 02:32:00,60.0,57.0,29.30,South,178,4.0,14.0,90,0.00,,,0.09,,2013-01-30 07:32:00,
2013-01-30 02:42:00,60.0,57.0,29.30,South,178,4.0,14.0,90,0.00,,,0.09,,2013-01-30 07:42:00,
2013-01-30 02:52:00,60.0,57.0,29.29,ESE,105,4.0,14.0,90,0.00,,,0.09,,2013-01-30 07:52:00,
2013-01-30 03:02:00,61.0,58.0,29.28,SSE,159,6.0,13.0,90,0.00,,,0.08,,2013-01-30 08:02:00,
2013-01-30 03:11:00,61.0,58.0,29.28,SSE,159,6.0,13.0,90,0.00,,,0.08,,2013-01-30 08:11:00,
2013-01-30 03:22:00,61.0,58.0,29.29,SSE,155,6.0,16.0,89,0.00,,,0.08,,2013-01-30 08:22:00,
2013-01-30 03:32:00,61.0,59.0,29.30,SSW,192,4.0,10.0,92,0.00,,,0.08,,2013-01-30 08:32:00,
2013-01-30 03:42:00,61.0,59.0,29.30,SSW,192,4.0,10.0,92,0.00,,,0.08,,2013-01-30 08:42:00,
2013-01-30 03:52:00,57.0,54.0,29.32,WNW,303,5.0,22.0,91,0.00,,,0.08,,2013-01-30 08:52:00,
2013-01-30 04:02:00,54.0,52.0,29.33,WNW,287,4.0,13.0,93,0.00,,,0.08,,2013-01-30 09:02:00,
2013-01-30 04:11:00,54.0,52.0,29.33,WNW,287,4.0,13.0,93,0.00,,,0.08,,2013-01-30 09:11:00,
2013-01-30 04:22:00,53.0,51.0,29.33,West,269,3.0,9.0,94,0.00,,,0.08,,2013-01-30 09:22:00,
2013-01-30 04:32:00,53.0,52.0,29.33,WNW,302,3.0,8.0,95,0.00,,,0.08,,2013-01-30 09:32:00,
2013-01-30 04:42:00,53.0,52.0,29.33,WNW,302,3.0,8.0,95,0.00,,,0.08,,2013-01-30 09:42:00,
2013-01-30 04:51:00,52.0,51.0,29.35,WNW,284,5.0,10.0,96,0.00,,,0.08,,2013-01-30 09:51:00,
2013-01-30 05:02:00,52.0,51.0,29.35,WNW,295,4.0,7.0,96,0.00,,,0.07,,2013-01-30 10:02:00,
2013-01-30 05:12:00,52.0,51.0,29.35,WNW,295,4.0,7.0,96,0.00,,,0.07,,2013-01-30 10:12:00,
2013-01-30 05:21:00,52.0,51.0,29.35,WNW,295,4.0,7.0,96,0.00,,,0.07,,2013-01-30 10:21:00,
2013-01-30 05:32:00,52.0,51.0,29.37,WNW,292,1.0,4.0,97,0.00,,,0.07,,2013-01-30 10:32:00,
2013-01-30 05:42:00,52.0,51.0,29.37,WNW,292,1.0,4.0,97,0.00,,,0.07,,2013-01-30 10:42:00,
2013-01-30 05:52:00,51.0,50.0,29.38,WNW,286,4.0,7.0,97,0.00,,,0.07,,2013-01-30 10:52:00,
2013-01-30 06:02:00,51.0,50.0,29.38,WSW,238,0.0,3.0,98,0.00,,,0.07,,2013-01-30 11:02:00,
2013-01-30 06:11:00,51.0,50.0,29.38,WSW,238,0.0,3.0,98,0.00,,,0.07,,2013-01-30 11:11:00,
2013-01-30 06:22:00,51.0,50.0,29.37,WSW,238,0.0,3.0,98,0.00,,,0.07,,2013-01-30 11:22:00,
2013-01-30 06:33:00,51.0,50.0,29.35,SW,234,0.0,1.0,98,0.00,,,0.07,,2013-01-30 11:33:00,
2013-01-30 06:42:00,51.0,50.0,29.35,SW,234,0.0,1.0,98,0.00,,,0.07,,2013-01-30 11:42:00,
2013-01-30 06:52:00,51.0,50.0,29.33,ESE,112,0.0,1.0,98,0.00,,,0.07,,2013-01-30 11:52:00,
2013-01-30 07:02:00,51.0,50.0,29.32,East,92,1.0,3.0,98,0.00,,,0.06,,2013-01-30 12:02:00,
2013-01-30 07:12:00,51.0,50.0,29.32,East,92,1.0,3.0,98,0.00,,,0.06,,2013-01-30 12:12:00,
2013-01-30 07:22:00,51.0,50.0,29.32,East,92,1.0,3.0,98,0.00,,,0.06,,2013-01-30 12:22:00,
2013-01-30 07:33:00,50.0,49.0,29.30,SSE,152,1.0,4.0,98,0.00,,,0.06,,2013-01-30 12:33:00,
2013-01-30 07:43:00,50.0,49.0,29.30,SSE,152,1.0,4.0,98,0.00,,,0.06,,2013-01-30 12:43:00,
2013-01-30 08:03:00,49.0,48.0,29.31,SE,136,0.0,4.0,98,0.01,,,0.07,,2013-01-30 13:03:00,
2013-01-30 08:12:00,49.0,48.0,29.31,SE,136,0.0,4.0,98,0.01,,,0.07,,2013-01-30 13:12:00,
2013-01-30 08:23:00,49.0,48.0,29.29,South,177,0.0,4.0,98,0.01,,,0.07,,2013-01-30 13:23:00,
2013-01-30 08:33:00,49.0,49.0,29.28,South,190,0.0,5.0,99,0.01,,,0.07,,2013-01-30 13:33:00,
2013-01-30 08:43:00,49.0,49.0,29.28,South,190,0.0,5.0,99,0.01,,,0.07,,2013-01-30 13:43:00,
2013-01-30 08:52:00,49.0,49.0,29.28,SSE,162,2.0,5.0,99,0.00,,,0.07,,2013-01-30 13:52:00,
2013-01-30 09:03:00,49.0,48.0,29.25,SE,144,1.0,5.0,98,0.00,,,0.07,,2013-01-30 14:03:00,
2013-01-30 09:12:00,49.0,48.0,29.25,SE,144,1.0,5.0,98,0.00,,,0.07,,2013-01-30 14:12:00,
2013-01-30 09:23:00,49.0,49.0,29.26,SSE,148,2.0,7.0,99,0.00,,,0.07,,2013-01-30 14:23:00,
2013-01-30 09:33:00,49.0,49.0,29.28,SSE,149,1.0,7.0,99,0.00,,,0.07,,2013-01-30 14:33:00,
2013-01-30 09:42:00,49.0,49.0,29.28,SSE,149,1.0,7.0,99,0.00,,,0.07,,2013-01-30 14:42:00,
2013-01-30 09:53:00,50.0,50.0,29.30,WSW,244,3.0,9.0,99,0.00,,,0.07,,2013-01-30 14:53:00,
2013-01-30 10:03:00,50.0,49.0,29.29,South,182,4.0,8.0,98,0.00,,,0.06,,2013-01-30 15:03:00,
2013-01-30 10:12:00,50.0,49.0,29.29,South,182,4.0,8.0,98,0.00,,,0.06,,2013-01-30 15:12:00,
2013-01-30 10:23:00,51.0,50.0,29.31,SSW,213,3.0,9.0,98,0.00,,,0.06,,2013-01-30 15:23:00,
2013-01-30 10:33:00,51.0,50.0,29.30,SSW,211,4.0,10.0,96,0.00,,,0.06,,2013-01-30 15:33:00,
2013-01-30 10:43:00,51.0,50.0,29.30,SSW,211,4.0,10.0,96,0.00,,,0.06,,2013-01-30 15:43:00,
2013-01-30 10:53:00,51.0,50.0,29.30,SSW,206,4.0,11.0,95,0.00,,,0.06,,2013-01-30 15:53:00,
2013-01-30 11:03:00,51.0,49.0,29.30,SW,220,5.0,9.0,94,0.00,,,0.06,,2013-01-30 16:03:00,
2013-01-30 11:12:00,51.0,49.0,29.30,SW,220,5.0,9.0,94,0.00,,,0.06,,2013-01-30 16:12:00,
2013-01-30 11:23:00,52.0,50.0,29.28,SW,219,3.0,9.0,93,0.00,,,0.06,,2013-01-30 16:23:00,
2013-01-30 11:32:00,52.0,50.0,29.28,SW,218,4.0,10.0,93,0.00,,,0.06,,2013-01-30 16:32:00,
2013-01-30 11:42:00,52.0,50.0,29.28,SW,218,4.0,10.0,93,0.00,,,0.06,,2013-01-30 16:42:00,
2013-01-30 11:52:00,52.0,50.0,29.28,SW,218,4.0,10.0,93,0.00,,,0.06,,2013-01-30 16:52:00,
2013-01-30 12:02:00,53.0,51.0,29.28,SW,221,4.0,10.0,92,0.00,,,0.05,,2013-01-30 17:02:00,
2013-01-30 12:13:00,53.0,51.0,29.28,SW,221,4.0,10.0,92,0.00,,,0.05,,2013-01-30 17:13:00,
2013-01-30 12:23:00,53.0,51.0,29.27,SW,234,4.0,9.0,92,0.00,,,0.05,,2013-01-30 17:23:00,
2013-01-30 12:33:00,53.0,51.0,29.26,SW,224,5.0,12.0,92,0.00,,,0.05,,2013-01-30 17:33:00,
2013-01-30 12:43:00,53.0,51.0,29.26,SW,224,5.0,12.0,92,0.00,,,0.05,,2013-01-30 17:43:00,
2013-01-30 12:53:00,53.0,51.0,29.24,SSW,211,6.0,12.0,92,0.00,,,0.05,,2013-01-30 17:53:00,
2013-01-30 13:03:00,54.0,51.0,29.24,West,259,6.0,11.0,91,0.00,,,0.05,,2013-01-30 18:03:00,
2013-01-30 13:13:00,54.0,51.0,29.24,West,259,6.0,11.0,91,0.00,,,0.05,,2013-01-30 18:13:00,
2013-01-30 13:23:00,54.0,51.0,29.26,SW,236,5.0,15.0,91,0.00,,,0.05,,2013-01-30 18:23:00,
2013-01-30 13:33:00,53.0,51.0,29.25,SW,225,7.0,15.0,92,0.00,,,0.05,,2013-01-30 18:33:00,
2013-01-30 13:43:00,53.0,51.0,29.25,SW,225,7.0,15.0,92,0.00,,,0.05,,2013-01-30 18:43:00,
2013-01-30 13:53:00,53.0,51.0,29.24,SSW,206,4.0,14.0,93,0.00,,,0.05,,2013-01-30 18:53:00,
2013-01-30 14:03:00,52.0,51.0,29.25,WNW,288,3.0,12.0,95,0.01,,,0.06,,2013-01-30 19:03:00,
2013-01-30 14:13:00,52.0,51.0,29.25,WNW,288,3.0,12.0,95,0.01,,,0.06,,2013-01-30 19:13:00,
2013-01-30 14:22:00,52.0,51.0,29.22,SSW,194,5.0,10.0,96,0.01,,,0.06,,2013-01-30 19:22:00,
2013-01-30 14:33:00,52.0,51.0,29.22,WSW,258,6.0,14.0,96,0.01,,,0.06,,2013-01-30 19:33:00,
2013-01-30 14:43:00,52.0,51.0,29.22,WSW,258,6.0,14.0,96,0.01,,,0.06,,2013-01-30 19:43:00,
2013-01-30 14:53:00,52.0,51.0,29.22,WSW,255,6.0,12.0,95,0.01,,,0.06,,2013-01-30 19:53:00,
2013-01-30 15:03:00,52.0,51.0,29.22,SW,231,5.0,13.0,95,0.00,,,0.05,,2013-01-30 20:03:00,
2013-01-30 15:12:00,52.0,51.0,29.22,SW,231,5.0,13.0,95,0.00,,,0.05,,2013-01-30 20:12:00,
2013-01-30 15:22:00,52.0,50.0,29.18,South,189,4.0,9.0,94,0.00,,,0.05,,2013-01-30 20:22:00,
2013-01-30 15:33:00,52.0,50.0,29.19,SSW,196,4.0,9.0,94,0.00,,,0.05,,2013-01-30 20:33:00,
2013-01-30 15:42:00,52.0,50.0,29.19,SSW,196,4.0,9.0,94,0.00,,,0.05,,2013-01-30 20:42:00,
2013-01-30 15:53:00,52.0,50.0,29.19,SSW,196,4.0,9.0,94,0.00,,,0.05,,2013-01-30 20:53:00,
2013-01-30 16:03:00,53.0,51.0,29.20,SSW,199,3.0,9.0,93,0.00,,,0.05,,2013-01-30 21:03:00,
2013-01-30 16:12:00,53.0,51.0,29.20,SSW,199,3.0,9.0,93,0.00,,,0.05,,2013-01-30 21:12:00,
2013-01-30 16:23:00,52.0,50.0,29.18,SSW,208,4.0,8.0,92,0.00,,,0.05,,2013-01-30 21:23:00,
2013-01-30 16:32:00,53.0,50.0,29.17,West,259,2.0,14.0,91,0.00,,,0.05,,2013-01-30 21:32:00,
2013-01-30 16:42:00,53.0,50.0,29.17,West,259,2.0,14.0,91,0.00,,,0.05,,2013-01-30 21:42:00,
2013-01-30 16:53:00,52.0,50.0,29.17,SW,232,4.0,10.0,92,0.00,,,0.05,,2013-01-30 21:53:00,
2013-01-30 17:03:00,52.0,50.0,29.16,WSW,252,7.0,12.0,93,0.00,,,0.04,,2013-01-30 22:03:00,
2013-01-30 17:12:00,52.0,50.0,29.16,WSW,252,7.0,12.0,93,0.00,,,0.04,,2013-01-30 22:12:00,
2013-01-30 17:22:00,49.0,46.0,29.18,WNW,284,9.0,16.0,90,0.00,,,0.04,,2013-01-30 22:22:00,
2013-01-30 17:32:00,46.0,43.0,29.20,WNW,287,8.0,19.0,89,0.00,,,0.04,,2013-01-30 22:32:00,
2013-01-30 17:42:00,46.0,43.0,29.20,WNW,287,8.0,19.0,89,0.00,,,0.04,,2013-01-30 22:42:00,
2013-01-30 17:53:00,45.0,42.0,29.20,WSW,240,8.0,18.0,90,0.00,,,0.04,,2013-01-30 22:53:00,
2013-01-30 18:02:00,44.0,41.0,29.19,West,259,5.0,15.0,90,0.00,,,0.04,,2013-01-30 23:02:00,
2013-01-30 18:12:00,44.0,41.0,29.19,West,259,5.0,15.0,90,0.00,,,0.04,,2013-01-30 23:12:00,
2013-01-30 18:22:00,43.0,41.0,29.21,WSW,242,6.0,15.0,91,0.00,,,0.04,,2013-01-30 23:22:00,
2013-01-30 18:33:00,42.0,40.0,29.22,WSW,250,5.0,12.0,91,0.00,,,0.04,,2013-01-30 23:33:00,
2013-01-30 18:42:00,42.0,40.0,29.22,WSW,250,5.0,12.0,91,0.00,,,0.04,,2013-01-30 23:42:00,
2013-01-30 18:52:00,41.0,39.0,29.24,West,275,6.0,15.0,92,0.00,,,0.04,,2013-01-30 23:52:00,
2013-01-30 19:02:00,39.0,37.0,29.25,West,271,6.0,18.0,92,0.00,,,0.04,,2013-01-31 00:02:00,
2013-01-30 19:11:00,39.0,37.0,29.25,West,271,6.0,18.0,92,0.00,,,0.04,,2013-01-31 00:11:00,
2013-01-30 19:22:00,38.0,36.0,29.26,West,276,6.0,14.0,93,0.00,,,0.04,,2013-01-31 00:22:00,
2013-01-30 19:32:00,37.0,35.0,29.26,WSW,254,7.0,17.0,93,0.00,,,0.04,,2013-01-31 00:32:00,
2013-01-30 19:42:00,37.0,35.0,29.26,WSW,254,7.0,17.0,93,0.00,,,0.04,,2013-01-31 00:42:00,
2013-01-30 19:53:00,37.0,35.0,29.27,WNW,286,7.0,16.0,93,0.00,,,0.04,,2013-01-31 00:53:00,
2013-01-30 20:02:00,37.0,35.0,29.26,West,274,7.0,18.0,93,0.00,,,0.04,,2013-01-31 01:02:00,
2013-01-30 20:12:00,37.0,35.0,29.26,West,274,7.0,18.0,93,0.00,,,0.04,,2013-01-31 01:12:00,
2013-01-30 20:22:00,37.0,35.0,29.26,West,263,6.0,17.0,92,0.00,,,0.04,,2013-01-31 01:22:00,
2013-01-30 20:32:00,36.0,34.0,29.27,West,268,7.0,18.0,92,0.00,,,0.04,,2013-01-31 01:32:00,
2013-01-30 20:42:00,36.0,34.0,29.27,West,268,7.0,18.0,92,0.00,,,0.04,,2013-01-31 01:42:00,
2013-01-30 20:53:00,36.0,34.0,29.28,West,263,8.0,19.0,91,0.00,,,0.04,,2013-01-31 01:53:00,
2013-01-30 21:01:00,36.0,33.0,29.28,WSW,258,7.0,20.0,90,0.00,,,0.04,,2013-01-31 02:01:00,
2013-01-30 21:12:00,36.0,33.0,29.28,WSW,258,7.0,20.0,90,0.00,,,0.04,,2013-01-31 02:12:00,
2013-01-30 21:22:00,36.0,33.0,29.28,WSW,258,7.0,20.0,90,0.00,,,0.04,,2013-01-31 02:22:00,
2013-01-30 21:32:00,36.0,33.0,29.28,NW,322,9.0,20.0,90,0.00,,,0.04,,2013-01-31 02:32:00,
2013-01-30 21:42:00,36.0,33.0,29.28,NW,322,9.0,20.0,90,0.00,,,0.04,,2013-01-31 02:42:00,
2013-01-30 21:52:00,36.0,33.0,29.28,NW,322,9.0,20.0,90,0.00,,,0.04,,2013-01-31 02:52:00,
2013-01-30 22:03:00,34.0,32.0,29.30,West,269,14.0,22.0,93,0.00,,,0.04,,2013-01-31 03:03:00,
2013-01-30 22:11:00,34.0,32.0,29.30,West,269,14.0,22.0,93,0.00,,,0.04,,2013-01-31 03:11:00,
2013-01-30 22:22:00,33.0,31.0,29.32,WNW,286,15.0,24.0,91,0.00,,,0.03,,2013-01-31 03:22:00,
2013-01-30 22:32:00,33.0,31.0,29.33,WNW,292,15.0,23.0,91,0.00,,,0.03,,2013-01-31 03:32:00,
2013-01-30 22:42:00,33.0,31.0,29.33,WNW,292,15.0,23.0,91,0.00,,,0.03,,2013-01-31 03:42:00,
2013-01-30 22:51:00,33.0,30.0,29.34,WNW,284,16.0,26.0,90,0.00,,,0.03,,2013-01-31 03:51:00,
2013-01-30 23:02:00,33.0,30.0,29.35,West,275,15.0,23.0,90,0.00,,,0.03,,2013-01-31 04:02:00,
2013-01-30 23:11:00,33.0,30.0,29.35,West,275,15.0,23.0,90,0.00,,,0.03,,2013-01-31 04:11:00,
2013-01-30 23:22:00,32.0,29.0,29.36,West,278,11.0,24.0,88,0.00,,,0.03,,2013-01-31 04:22:00,
2013-01-30 23:32:00,32.0,29.0,29.37,WSW,257,13.0,23.0,88,0.00,,,0.03,,2013-01-31 04:32:00,
2013-01-30 23:42:00,32.0,29.0,29.37,WSW,257,13.0,23.0,88,0.00,,,0.03,,2013-01-31 04:42:00,
2013-01-30 23:51:00,32.0,29.0,29.39,WNW,286,16.0,23.0,88,0.00,,,0.03,,2013-01-31 04:51:00,